Weather in Krasnoe

Russia / Belgorod Oblast     50°55′58″N   38°40′52″E
temp.,
°C
wind,
m/s
gust,
m/s
humid.,
%
clouds,
%
prec.,
mm/h
press.,
hPa
HPBL,
m
10 august, wed
wed1000:00+21ene225329 0.0 101714
03:00+19ne1157100 0.0 101711
06:00+19nne116079 0.0 101711
09:00+25ne2144100 0.0 1017307
12:00+30ese2330100 0.0 1016952
15:00+32se3327100 0.0 10152275
18:00+30ene3336100 0.0 101465
21:00+25ne4941100 0.0 1015174
11 august, thu
thu1100:00+23nne7115988 0.0 1016359
03:00+20ne5107187 0.0 1016243
06:00+19ne5107893 0.0 1017211
09:00+25ene684697 0.0 1017369
12:00+31ene783268 0.0 10161404
15:00+33ene772565 0.0 10153065
18:00+31ne610328 0.0 1015781
21:00+24ne612493 0.0 1017272
12 august, fri
fri1200:00+24ne5125553 0.0 1017334
03:00+21ene51265100 0.0 1019300
06:00+21ne71471100 0.0 1018310
09:00+26ene7104986 0.0 1019623
12:00+31e783467 0.0 10191476
15:00+34e67277 0.0 10182224
18:00+32ene4733100 0.0 1017283
21:00+27ene4946100 0.0 1019244
13 august, sat
sat1300:00+23ne485684 0.0 1019152
03:00+23nne3656100 0.0 1019137
06:00+23ene4960100 0.0 1020207
09:00+25ene595699 0.0 1020379
12:00+30ene71039100 0.0 1019686
15:00+33ese6730100 0.0 10181968
18:00+31ene473460 0.0 1017381
21:00+27ne61247100 0.0 1017263
14 august, sun
sun1400:00+25ene6124299 0.0 1017317
03:00+24ene41047100 0.2 1017269
06:00+24e5949100 0.0 1016217
09:00+25ene485062 0.1 1016339
12:00+33e792798 0.0 10151655
15:00+34ese782470 0.0 10142140
18:00+31ene71029100 0.0 1013614
21:00+24se81555100 0.5 1016394